Flag for Brazil Weather past 2 weeks in Curitiba, Paraná, Brazil

Now
55 °F

Partly cloudy.


Feels Like: 53 °F
Forecast: 49 / 65 °F
Wind: 8 mph from East

Location: Curitiba Aeroporto

Current Time: Sep 21, 2014 at 10:12:52 PM

Latest Report: Sep 21, 2014 at 9:10 PM


Visibility: N/A

Pressure: 30.18 "Hg

Humidity: 94%

Dew point: 54 °F

Location of CuritibaLocation

Historic Weather in Curitiba — Graph

°F

Curitiba temperature yesterday

Maximum temperature yesterday: 70 °F (at 3:00 PM)
Minimum temperature yesterday: 59 °F (at 3:00 AM)
Average temperature yesterday: 63 °F

Past Weeks' High & Low Weather Summary

 TemperatureHumidityPressure
High82 °F (Sep 10, 4:00 PM)100% (Sep 6, 9:00 PM)30.30 "Hg (Sep 6, 9:00 PM)
Low39 °F (Sep 19, 6:00 AM)25% (Sep 13, 4:00 PM)29.92 "Hg (Sep 19, 5:00 PM)
Average63 °F83%30.11 "Hg
* Reported Sep 6 9:00 PM — Sep 21 9:00 PM, Curitiba, Weather by CustomWeather, © 2014

Note: Actual official high and low records may vary slightly from our data, if they occured in-between our weather recording intervals... More about our weather records

Advertising

Curitiba weather history for previous 24 hours

 ConditionsComfort  
Time TempWeatherWind HumidityBarometerVisibility
9:00 PM
Sep 21
55 °FPassing clouds.10 mph94%30.18 "HgN/A
8:00 PM55 °FPassing clouds.10 mph100%30.15 "HgN/A
7:00 PM57 °FPassing clouds.9 mph94%30.12 "HgN/A
6:00 PM61 °FPassing clouds.9 mph83%30.09 "HgN/A
5:00 PM70 °FScattered clouds.12 mph46%30.07 "HgN/A
4:00 PM68 °FScattered clouds.12 mph43%30.04 "HgN/A
3:00 PM70 °FScattered clouds.14 mph43%30.04 "HgN/A
2:00 PM68 °FPassing clouds.9 mph49%30.07 "HgN/A
1:00 PM68 °FPassing clouds.13 mph49%30.07 "HgN/A
12:00 PM66 °FPassing clouds.7 mph52%30.09 "HgN/A
11:00 AM64 °FSunny.5 mph56%30.09 "Hg10 mi
10:00 AM61 °FSunny.8 mph68%30.09 "Hg10 mi
9:00 AM59 °FPassing clouds.6 mph77%30.09 "HgN/A
8:00 AM57 °FScattered clouds.10 mph94%30.09 "HgN/A
7:00 AM55 °FScattered clouds.7 mph100%30.07 "HgN/A
6:00 AM55 °FScattered clouds.6 mph100%30.04 "Hg4 mi
5:00 AM55 °FFog.5 mph100%30.04 "Hg3 mi
4:00 AM57 °FFog.6 mph100%30.01 "Hg2 mi
3:06 AM57 °FFog.3 mph100%30.01 "Hg1 mi
3:00 AM57 °FFog.3 mph100%30.01 "Hg2 mi
2:00 AM57 °FPartly cloudy.No wind100%30.01 "Hg4 mi
1:00 AM59 °FPassing clouds.No wind100%30.04 "HgN/A
12:00 AM59 °FPassing clouds.3 mph100%30.04 "HgN/A
11:00 PM
Sep 20
61 °FPassing clouds.2 mph100%30.04 "HgN/A
10:00 PM61 °FPassing clouds.5 mph100%30.04 "HgN/A
Weather by CustomWeather, © 2014

See weather overviewHow to use our weather pages